Regional Weather Roundup
Issued by NWS

Home | Current Version | Previous Version | Graphics & Text | Print | Product List | Glossary On
Versions: 1 2 3 4 5 6 7 8 9 10 11 12 13 14 15 16 17 18 19 20 21 22 23 24 25 26 27 28 29 30 31 32 33 34 35 36 37 38 39 40 41 42 43 44 45 46 47 48 49 50
000
ASUS45 KBOI 192210
RWRID

IDAHO REGIONAL WEATHER ROUNDUP
NATIONAL WEATHER SERVICE BOISE ID
300 PM MST THU JAN 19 2017

NOTE: "FAIR" INDICATES FEW OR NO CLOUDS BELOW 12000 FEET
WITH NO SIGNIFICANT WEATHER AND/OR OBSTRUCTIONS TO VISIBILITY

IDZ012-014-192300-
SOUTHWEST IDAHO


CITY           SKY/WX    TMP DP  RH WIND       PRES   REMARKS
BOISE          CLOUDY    37  32  82 SE8       29.66F WCI  31
CALDWELL       PTSUNNY   37  32  82 NW3       29.68F
MOUNTAIN HOME  CLOUDY    35  35 100 E9        29.67S WCI  28
$$

IDZ016-017-192300-
SOUTHCENTRAL IDAHO


CITY           SKY/WX    TMP DP  RH WIND       PRES   REMARKS
BURLEY         CLOUDY    37  30  75 S13       29.65S WCI  29
JEROME         CLOUDY    37  31  78 CALM      29.67S
TWIN FALLS     CLOUDY    41  31  67 S10       29.65S
$$

IDZ019>023-192300-
SOUTHEAST IDAHO


CITY           SKY/WX    TMP DP  RH WIND       PRES   REMARKS
IDAHO FALLS    CLOUDY    32  31  96 SW8       29.66F WCI  25
POCATELLO      CLOUDY    37  30  75 S12       29.66F WCI  29
REXBURG        CLOUDY    31  29  92 E3        29.66F FOG
$$

IDZ006-010-011-018-031-032-192300-
CENTRAL IDAHO MOUNTAINS


CITY           SKY/WX    TMP DP  RH WIND       PRES   REMARKS
MCCALL         CLOUDY    32  29  88 SE8       29.57S WCI  25
HAILEY         CLOUDY    30  28  93 CALM      29.65F
STANLEY          N/A     32  29  88 S8        29.57S WCI  25
SALMON         CLOUDY    30  25  80 CALM      29.59F
CHALLIS        CLOUDY    25  23  92 CALM      29.59S
$$

IDZ002-004-006-007-026-192300-
NORTHERN IDAHO


CITY           SKY/WX    TMP DP  RH WIND       PRES   REMARKS
LEWISTON       CLOUDY    41  35  79 CALM      29.61F
LOWELL           N/A     35  33  92 N3        29.67S
COEUR D`ALENE  CLOUDY    40  35  83 S7        29.57S
MULLAN PASS    SNOW      31  27  85 CALM      29.50S VSB 1/4
$$



USA.gov is the U.S. government's official web portal to all federal, state and local government web resources and services.